Regional Weather Roundup
Issued by NWS

Home | Current Version | Previous Version | Text Only | Print | Product List | Glossary On
Versions: 1 2 3 4 5 6 7 8 9 10 11 12 13 14 15 16 17 18 19 20 21 22 23 24 25 26 27 28 29 30 31 32 33 34 35 36 37 38 39 40 41 42 43 44 45 46 47 48 49 50
762
ASUS44 KJAN 300810
RWRMS

MISSISSIPPI HOURLY WEATHER ROUNDUP
NATIONAL WEATHER SERVICE JACKSON MS
300 AM CDT WED JUL 30 2014

NOTE: "FAIR: INDICATES FEW OR NO CLOUDS BELOW 12,000 FEET WITH NO
SIGNIFICANT WEATHER AND/OR OBSTRUCTIONS TO VISIBILITY.

MSZ001>002-007>008-010>013-018>021-025>028-034>036-300900-
NORTHWEST MISSISSIPPI

CITY           SKY/WX    TMP DP  RH WIND       PRES   REMARKS
CLARKSDALE     FAIR      63  61  94 CALM      30.10S
CLEVELAND      FAIR      62  61  96 CALM      30.08S
GREENWOOD      PTCLDY    62  59  90 CALM      30.09S
GREENVILLE     PTCLDY    63  61  93 CALM      30.08S
GRENADA        FAIR      55  55 100 NW3       30.09F
OLIVE BRANCH   CLEAR     61  61 100 CALM      30.10S
OXFORD         FAIR      57  55  94 CALM      30.11S
TUNICA         MOSUNNY   61  59  94 CALM      30.10S
$$

MSZ003>006-009-014>017-022>024-029>033-037>039-300900-
NORTHEAST MISSISSIPPI

CITY           SKY/WX    TMP DP  RH WIND       PRES   REMARKS
BELMONT        FAIR      56  55  95 CALM      30.09S
COLUMBUS AFB   CLEAR     59  57  94 CALM      30.08S
CORINTH        FAIR      57  55  94 CALM      30.09F FOG
GOLDN TRIANGLE CLEAR     57  52  82 CALM      30.09S
STARKVILLE     FAIR      55  55 100 CALM      30.08F
TUPELO         CLEAR     59  56  89 NE5       30.08F
$$

MSZ040-058-300900-
CENTRAL MISSISSIPPI

CITY           SKY/WX    TMP DP  RH WIND       PRES   REMARKS
JACKSON INTL   CLEAR     63  59  87 CALM      30.08S
JACKSON HAWKNS PTCLDY    66  58  75 CALM      30.08S
MERIDIAN KEY   CLEAR     59  56  89 CALM      30.07F
MERIDIAN NAS   CLEAR     60  56  86 CALM      30.07F
RAYMOND        FAIR      61  55  82 CALM      30.09S
VICKSBURG      CLEAR     61  59  93 CALM      30.09R
$$

MSZ059>079-300900-
SOUTH MISSISSIPPI

CITY           SKY/WX    TMP DP  RH WIND       PRES   REMARKS
BROOKHAVEN     FAIR      63  63 100 CALM      30.09S
COLUMBIA       FAIR      61  59  94 CALM      30.05F
HATTIESBURG    CLEAR     67  62  84 N3        30.07S
MCCOMB         CLEAR     68  60  75 N5        30.07S
NATCHEZ        CLEAR     66  61  82 NE3       30.08F
PINE BELT      CLEAR     64  57  77 N5        30.07F
$$

MSZ080>082-300900-
COASTAL MISSISSIPPI

CITY           SKY/WX    TMP DP  RH WIND       PRES   REMARKS
BILOXI         CLEAR     73  64  73 NE9       30.03S
PASCAGOULA     CLEAR     71  62  73 N6        30.03S
GULFPORT       CLEAR     76  64  66 NE6       30.02F
$$



USA.gov is the U.S. government's official web portal to all federal, state and local government web resources and services.